sat.trackr.live / text

‹ back to catalog

STARLINK-30049

NORAD 56294 · 2023-056J

PAYLOAD ACTIVE UNKNOWN

§ Identity

Operator
Country
US
Launch date
2023-04-19
Launch site
AFETR
Launch vehicle
Mass (kg)
RCS (m²)

Purposes: comms

External: N2YO · Heavens-Above · Gunter

§ Orbital elements

Epoch: 2026-05-25T00:57:00.620064Z

Period
94.27 min
Inclination
43.0026°
Eccentricity
0.0001690
Mean motion
15.27591781 rev/d
Perigee alt
481.9 km
Apogee alt
484.2 km
Semi-major
6,861.2 km
B*
-1.7664e-4
RAAN
137.9258°
Arg perigee
289.2272°
Mean anomaly
70.8397°
Rev number
17,171

§ Raw data

STARLINK-300491 56294U 23056J   26145.03959051 -.00005122  00000+0 -17664-3 0  99902 56294  43.0026 137.9258 0001690 289.2272  70.8397 15.27591781171713

JSON: /api/v1/satellites/56294 · /tle

For live sub-satellite position, see the globe view (requires WebGL).

§ Visibility from observer

Set your observer location to see the next 7 days of passes ≥ 10°. The values pass through the URL so the page stays shareable.

No JS? Fill the form by hand. The geolocation button needs JavaScript.